Regional Weather Roundup
Issued by NWS Goodland, KS

Home | Current Version | Previous Version | Graphics & Text | Print | Product List | Glossary On
Versions: 1 2 3 4 5 6 7 8 9 10 11 12 13 14 15 16 17 18 19 20 21 22 23 24 25 26 27 28 29 30 31 32 33 34 35 36 37 38 39 40 41 42 43 44 45 46 47 48 49 50
000
ASUS43 KGLD 251008
RWRGLD

GOODLAND FORECAST AREA HOURLY WEATHER ROUNDUP
NATIONAL WEATHER SERVICE GOODLAND KS
400 AM MDT SAT OCT 25 2014

...OFFICIAL OBSERVATIONS...

CITY           SKY/WX    TMP DP  RH WIND       PRES   REMARKS
GOODLAND KS    CLEAR     47  34  60 W7        30.12S
HILL CITY KS   CLEAR     46  40  79 W6        30.05F
IMPERIAL NEB   CLEAR     46  34  62 W5        30.09S
MCCOOK NEB     CLEAR     42  35  76 W7        30.07S
AKRON CO       CLEAR     47  28  47 W9        30.16S
BURLINGTON CO  CLEAR     47  32  56 W8        30.13F
LIMON CO       PTCLDY    43  30  60 N5        30.21F
$$

...UNOFFICIAL OBSERVATIONS...

CITY           SKY/WX    TMP DP  RH WIND       PRES   REMARKS
COLBY KS       CLEAR     45  37  76 W8        30.09S
NORTON KS      CLEAR     43  34  70 NW6       30.05S
SHARON SPRINGS   N/A     52  38  60 SW5         N/A
TRIBUNE KS     CLEAR     52  45  76 S8        30.12F
KIT CARSON CO    N/A     47  33  57 CALM        N/A
YUMA CO          N/A     42  32  67 W6          N/A
$$



USA.gov is the U.S. government's official web portal to all federal, state and local government web resources and services.